Location: Ladrillo (historical)
(32.8195°N, 117.2231°W)
Time: 00:15:18
(UTC+00:00)

Altair - Pass Details

Date: 04 March 2021
Orbit: 1501 x 1683 km, 47.2° (Epoch: 16 April)

Event Time Altitude Azimuth Distance (km) Brightness Sun altitude
Rises 06:53:39 0° 303° (WNW) 4,700 10.5 -59.3°
Reaches altitude 10° 06:56:54 10° 310° (NW) 3,738 9.8 -59.6°
Enters shadow 06:58:23 16° 315° (NW) 3,326 9.5 -59.8°
